Location: *
(46.4000°N, 12.6667°E)
Time: 03:26:35
(UTC+00:00)

SPOT 5 - Pass Details

Date: 09 April 2020
Orbit: 624 x 814 km, 98.3° (Epoch: 06 June)

Event Time Altitude Azimuth Distance (km) Brightness Sun altitude
Exits shadow 20:31:35 50° 34° (NE) 803 3.1 -25.1°
Drops below altitude 10° 20:35:09 10° 354° (N) 2,009 5.8 -25.5°
Sets 20:37:22 0° 350° (N) 2,927 6.9 -25.8°
